Find Starlink 32920

NORAD ID: 62925 Int'l Des: 2025-027 Owner: SPXS Country: US Constellation: starlink operational
LEOCIRCULAR

現在のビュー

3D地球を読み込み中...

About Starlink 32920

Starlink 32920 (NORAD 62925) is a starlink constellation satellite (v2 mini) launched Feb 8, 2025 by SPXS of US. It operates in LEO, CIRCULAR orbit with a mass of 730.00 kg.

Starlink 32920について

説明を読み込み中...

次回通過

Passes for default location (London). Set your location on the main map for personalized predictions.

高度履歴

Loading altitude history...

軌道要素

1 62925U 25027U 26170.56687052 .00012577 00000-0 46561-3 0 9992
2 62925 42.9983 273.4723 0000982 266.4554 93.6185 15.27590505 77128
Epoch: Jun 19, 2026 • Age: 10 hours

現在のステータス

高度 486.6 km
速度 7.63 km/s
衛星直下点 42.42°N, 114.11°E
打ち上げ日 Feb 8, 2025
運用期間 1.3 years
タイプ internet

技術仕様

分類 Payload
質量 730.00 kg
乾燥質量 700.00 kg
総質量 730.00 kg
長さ 0.30 m
直径 4.10 m
スパン 29.00 m
形状 Box + pan
製造者 SPXS
バスタイプ Starlink V2M
フェーズステータス In Orbit
所有者/国 SPXS/US

Most Searched